Location: ActonStarParty
(42.4766°N, 71.4538°W)
Time: 12:00:36
(UTC-04:00)

Amateur Radio Satellites - All Passes

Search period start: 25 October 2014 11:30
Search period end: 26 October 2014 11:30
Location: ActonStarParty, 42.4766°N, 71.4538°W

Satellite Date Start Highest point End Downlink Frequencies (MHz)
Time Altitude Azimuth
Oscar 16 25 Oct 11:44:10 11:45:00 10° 56° (NE) 11:45:49 437.025 USB, Beacon 2401.1428
FUNcube-1 25 Oct 11:49:08 11:53:03 36° 290° (WNW) 11:56:53 145.950 - 145.970 MHz USB
Oscar 11 25 Oct 11:50:51 11:53:37 17° 296° (WNW) 11:56:23 145.825 FM, Beacon 2401.500 USB
ISS 25 Oct 12:23:01 12:26:08 38° 139° (SE) 12:29:16 145.800 FM
Sapphire 25 Oct 12:30:43 12:36:00 49° 54° (NE) 12:41:15 437.095 MHz 1200 baud AX-25 AFSK
Oscar 19 25 Oct 12:33:24 12:37:45 29° 66° (ENE) 12:42:07 437.125 CW, 437.150 USB
JAS-1B 25 Oct 12:40:02 12:45:03 30° 65° (ENE) 12:49:56 435.800 - 435.900 CW/SSB
ZACube-1 25 Oct 12:42:56 12:44:15 11° 299° (WNW) 12:45:33 437.345 MHz
Oscar 10/S400 25 Oct 12:47:07 13:04:22 30° 151° (SSE) 13:21:47 145.825 - 145.975 CW/USB, Beacon 145.810 USB
PCSat 25 Oct 12:53:08 12:58:36 79° 60° (ENE) 13:04:00 145.825 MHz
AO-27 25 Oct 12:53:25 12:57:04 20° 62° (ENE) 13:00:45 436.795 MHz FM
SO-50 25 Oct 12:55:15 12:59:44 73° 121° (ESE) 13:04:21 436.795 FM
KITSAT 1 25 Oct 12:57:10 13:05:12 69° 305° (NW) 13:13:17 435.175 FM
AO-Echo 25 Oct 13:09:36 13:13:53 31° 67° (ENE) 13:18:19 ?
Oscar 16 25 Oct 13:18:18 13:23:26 75° 74° (ENE) 13:28:36 437.025 USB, Beacon 2401.1428
Uribyol 2 25 Oct 13:39:05 13:44:06 51° 71° (ENE) 13:49:10 436.500 FM
ITAMSAT 1 25 Oct 13:45:14 13:50:17 54° 71° (ENE) 13:55:23 435.822 SSB
ISS 25 Oct 13:59:47 14:02:51 33° 336° (NNW) 14:05:56 145.800 FM
Gurwin Techsat 1B 25 Oct 14:08:45 14:13:48 47° 70° (ENE) 14:18:53 435.225 FM
Oscar 19 25 Oct 14:12:13 14:16:57 36° 263° (W) 14:21:42 437.125 CW, 437.150 USB
Sapphire 25 Oct 14:14:46 14:19:06 25° 252° (WSW) 14:23:25 437.095 MHz 1200 baud AX-25 AFSK
UOSAT-12 25 Oct 14:15:44 14:20:08 45° 117° (ESE) 14:24:38 437.025 FM, 437.400 FM
TMSAT-1 25 Oct 14:19:38 14:24:38 44° 69° (ENE) 14:29:39 436.925 FM
AO-7 25 Oct 14:26:44 14:33:13 27° 53° (NE) 14:39:42 29.400 - 29.500 MHz
JAS-1B 25 Oct 14:30:17 14:35:42 36° 262° (W) 14:40:55 435.800 - 435.900 CW/SSB
AO-27 25 Oct 14:31:00 14:36:08 58° 259° (W) 14:41:18 436.795 MHz FM
SO-50 25 Oct 14:37:39 14:40:49 18° 321° (NW) 14:44:04 436.795 FM
PCSat 25 Oct 14:38:26 14:41:17 15° 257° (WSW) 14:44:08 145.825 MHz
AO-Echo 25 Oct 14:48:16 14:52:36 31° 265° (W) 14:57:06 ?
KITSAT 1 25 Oct 14:56:16 15:02:13 22° 329° (NNW) 15:08:11 435.175 FM
Uosat F 25 Oct 14:56:48 14:59:42 16° 60° (ENE) 15:02:37 435.120 FM
Oscar 16 25 Oct 15:00:51 15:03:20 13° 271° (W) 15:05:49 437.025 USB, Beacon 2401.1428
Uribyol 2 25 Oct 15:20:00 15:23:51 21° 267° (W) 15:27:44 436.500 FM
ITAMSAT 1 25 Oct 15:26:26 15:30:06 19° 268° (W) 15:33:48 435.822 SSB
JAS-2 25 Oct 15:27:15 15:29:14 12° 49° (NE) 15:31:17 435.800 - 435.900 CW/SSB, 435.910 FM
ISS 25 Oct 15:37:59 15:40:17 17° 356° (N) 15:42:34 145.800 FM
Saudisat 1A 25 Oct 15:39:26 15:43:38 41° 50° (NE) 15:47:49 436.775 MHz
Gurwin Techsat 1B 25 Oct 15:49:52 15:53:59 23° 267° (W) 15:58:08 435.225 FM
UOSAT-12 25 Oct 15:56:32 16:00:29 26° 316° (NW) 16:04:28 437.025 FM, 437.400 FM
TMSAT-1 25 Oct 16:00:28 16:04:43 24° 266° (W) 16:09:00 436.925 FM
AO-40 25 Oct 16:10:54 22:47:50 39° 185° (S) 04:25:20 Beacon 2401.320
AO-7 25 Oct 16:16:55 16:25:12 78° 253° (WSW) 16:33:32 29.400 - 29.500 MHz
Uosat F 25 Oct 16:32:53 16:37:53 71° 257° (WSW) 16:42:56 435.120 FM
KITSAT 1 25 Oct 16:58:22 17:01:25 12° 359° (N) 17:04:29 435.175 FM
JAS-2 25 Oct 17:06:49 17:12:41 61° 70° (ENE) 17:19:24 435.800 - 435.900 CW/SSB, 435.910 FM
ISS 25 Oct 17:15:03 17:17:49 23° 17° (NNE) 17:20:35 145.800 FM
Hamsat 25 Oct 17:15:22 17:19:18 39° 72° (ENE) 17:23:13 145.90 MHz
Saudisat 1A 25 Oct 17:19:29 17:22:58 23° 247° (WSW) 17:26:26 436.775 MHz
SO-67 25 Oct 17:58:56 18:00:30 13° 66° (ENE) 18:02:04 435.3500 MHz FM
AO-7 25 Oct 18:15:02 18:19:15 15° 272° (W) 18:23:30 29.400 - 29.500 MHz
OPAL 25 Oct 18:16:33 18:21:33 87° 107° (ESE) 18:26:29 ?
STRAND 1 25 Oct 18:25:01 18:27:49 15° 90° (E) 18:30:35 ?
ISS 25 Oct 18:51:29 18:54:50 82° 214° (SW) 18:58:10 145.800 FM
Hamsat 25 Oct 18:52:34 18:55:24 18° 268° (W) 18:58:15 145.90 MHz
JAS-2 25 Oct 18:53:51 18:58:24 22° 272° (W) 19:03:22 435.800 - 435.900 CW/SSB, 435.910 FM
KITSAT 1 25 Oct 18:54:49 19:00:40 21° 30° (NNE) 19:06:30 435.175 FM
SO-67 25 Oct 19:29:54 19:33:08 38° 262° (W) 19:36:23 435.3500 MHz FM
SO-50 25 Oct 19:46:50 19:49:40 15° 36° (NE) 19:52:30 436.795 FM
HO-68 25 Oct 19:57:28 20:04:03 42° 64° (ENE) 20:10:40 435.675 MHz FM
OPAL 25 Oct 19:57:32 19:59:43 13° 304° (NW) 20:01:53 ?
STRAND 1 25 Oct 20:02:21 20:07:30 70° 287° (WNW) 20:12:36 ?
UKube-1 25 Oct 20:29:46 20:32:45 18° 64° (ENE) 20:35:45 145.840 MHz, 145.915 MHz
KITSAT 1 25 Oct 20:49:42 20:57:45 66° 55° (NE) 21:05:46 435.175 FM
RS-15 25 Oct 21:04:52 21:14:22 35° 106° (ESE) 21:23:46 29.354 - 29.394 USB, Beacon 29.352 USB
UOSAT-12 25 Oct 21:06:57 21:07:55 11° 30° (NNE) 21:08:52 437.025 FM, 437.400 FM
Oscar 11 25 Oct 21:09:13 21:13:15 40° 71° (ENE) 21:17:17 145.825 FM, Beacon 2401.500 USB
FUNcube-1 25 Oct 21:10:29 21:13:44 20° 65° (ENE) 21:16:58 145.950 - 145.970 MHz USB
SO-50 25 Oct 21:26:09 21:31:00 78° 56° (NE) 21:35:54 436.795 FM
HO-68 25 Oct 21:45:06 21:51:44 40° 262° (W) 21:58:26 435.675 MHz FM
ZACube-1 25 Oct 22:00:42 22:05:14 63° 74° (ENE) 22:09:42 437.345 MHz
UKube-1 25 Oct 22:04:27 22:08:37 44° 261° (W) 22:12:48 145.840 MHz, 145.915 MHz
MaSat-1 25 Oct 22:40:28 22:43:14 18° 107° (ESE) 22:45:52 437.345 MHz
UOSAT-12 25 Oct 22:44:39 22:49:14 47° 51° (NE) 22:53:44 437.025 FM, 437.400 FM
FUNcube-1 25 Oct 22:45:25 22:49:48 44° 261° (W) 22:54:08 145.950 - 145.970 MHz USB
KITSAT 1 25 Oct 22:45:56 22:52:33 29° 254° (WSW) 22:59:10 435.175 FM
Oscar 11 25 Oct 22:46:32 22:49:35 19° 267° (W) 22:52:38 145.825 FM, Beacon 2401.500 USB
SO-50 25 Oct 23:08:35 23:10:57 14° 252° (WSW) 23:13:20 436.795 FM
RS-15 25 Oct 23:15:01 23:25:56 68° 309° (NW) 23:36:53 29.354 - 29.394 USB, Beacon 29.352 USB
ZACube-1 25 Oct 23:39:49 23:42:00 13° 270° (W) 23:44:10 437.345 MHz
MaSat-1 26 Oct 00:14:51 00:18:39 38° 300° (WNW) 00:22:06 437.345 MHz
UOSAT-12 26 Oct 00:25:29 00:29:04 22° 249° (WSW) 00:32:35 437.025 FM, 437.400 FM
Oscar 16 26 Oct 01:30:00 01:34:10 25° 94° (E) 01:38:18 437.025 USB, Beacon 2401.1428
RS-15 26 Oct 01:31:57 01:40:50 27° 338° (NNW) 01:49:50 29.354 - 29.394 USB, Beacon 29.352 USB
Uribyol 2 26 Oct 01:52:22 01:55:42 17° 91° (E) 01:59:00 436.500 FM
ITAMSAT 1 26 Oct 01:58:31 02:02:05 18° 92° (E) 02:05:37 435.822 SSB
Oscar 10/S400 26 Oct 02:02:23 02:43:07 13° 248° (WSW) 03:48:28 145.825 - 145.975 CW/USB, Beacon 145.810 USB
JAS-1B 26 Oct 02:10:33 02:17:11 55° 101° (ESE) 02:25:04 435.800 - 435.900 CW/SSB
Oscar 19 26 Oct 02:22:35 02:27:43 75° 103° (ESE) 02:32:50 437.125 CW, 437.150 USB
Gurwin Techsat 1B 26 Oct 02:25:19 02:28:50 18° 91° (E) 02:32:21 435.225 FM
TMSAT-1 26 Oct 02:35:57 02:39:14 16° 90° (E) 02:42:29 436.925 FM
AO-27 26 Oct 02:43:23 02:48:28 48° 100° (E) 02:53:29 436.795 MHz FM
AO-Echo 26 Oct 02:53:49 02:59:10 80° 103° (ESE) 03:04:29 ?
Oscar 16 26 Oct 03:08:52 03:13:39 41° 291° (WNW) 03:18:25 437.025 USB, Beacon 2401.1428
Sapphire 26 Oct 03:13:21 03:18:19 39° 111° (ESE) 03:23:19 437.095 MHz 1200 baud AX-25 AFSK
Uribyol 2 26 Oct 03:30:26 03:35:35 61° 288° (WNW) 03:40:41 436.500 FM
PCSat 26 Oct 03:35:16 03:40:37 65° 116° (ESE) 03:46:00 145.825 MHz
ITAMSAT 1 26 Oct 03:36:49 03:41:56 57° 289° (WNW) 03:47:01 435.822 SSB
RS-15 26 Oct 03:49:44 03:58:14 24° 14° (NNE) 04:06:54 29.354 - 29.394 USB, Beacon 29.352 USB
OPAL 26 Oct 03:54:49 03:58:44 23° 61° (ENE) 04:02:39 ?
JAS-1B 26 Oct 04:01:57 04:07:35 30° 295° (WNW) 04:14:04 435.800 - 435.900 CW/SSB
Oscar 19 26 Oct 04:03:37 04:06:26 15° 300° (WNW) 04:09:14 437.125 CW, 437.150 USB
Gurwin Techsat 1B 26 Oct 04:03:58 04:09:12 60° 288° (WNW) 04:14:25 435.225 FM
TMSAT-1 26 Oct 04:14:20 04:19:36 65° 287° (WNW) 04:24:50 436.925 FM
AO-7 26 Oct 04:18:06 04:25:34 35° 97° (E) 04:32:59 29.400 - 29.500 MHz
AO-27 26 Oct 04:23:37 04:27:38 23° 297° (WNW) 04:31:39 436.795 MHz FM
AO-Echo 26 Oct 04:34:17 04:37:14 15° 300° (WNW) 04:40:11 ?
Uosat F 26 Oct 04:40:13 04:44:48 34° 97° (E) 04:49:20 435.120 FM
Sapphire 26 Oct 04:56:53 05:01:46 34° 310° (NW) 05:06:41 437.095 MHz 1200 baud AX-25 AFSK
PCSat 26 Oct 05:20:16 05:24:29 23° 316° (NW) 05:28:45 145.825 MHz
OPAL 26 Oct 05:32:20 05:37:18 49° 258° (WSW) 05:42:15 ?
STRAND 1 26 Oct 05:41:09 05:45:11 24° 64° (ENE) 05:49:15 ?
JAS-2 26 Oct 05:59:22 06:07:04 59° 99° (E) 06:14:42 435.800 - 435.900 CW/SSB, 435.910 FM
RS-15 26 Oct 06:03:08 06:13:58 53° 45° (NE) 06:25:11 29.354 - 29.394 USB, Beacon 29.352 USB
AO-7 26 Oct 06:10:35 06:18:36 55° 296° (WNW) 06:26:38 29.400 - 29.500 MHz
Uosat F 26 Oct 06:19:07 06:23:29 30° 294° (WNW) 06:27:49 435.120 FM
Hamsat 26 Oct 06:35:44 06:39:56 77° 102° (ESE) 06:44:10 145.90 MHz
SO-67 26 Oct 06:53:42 06:55:19 13° 91° (E) 06:56:56 435.3500 MHz FM
STRAND 1 26 Oct 07:19:12 07:24:06 45° 261° (W) 07:29:02 ?
Saudisat 1A 26 Oct 07:25:18 07:29:41 78° 122° (ESE) 07:34:06 436.775 MHz
JAS-2 26 Oct 07:44:55 07:51:39 34° 297° (WNW) 07:58:25 435.800 - 435.900 CW/SSB, 435.910 FM
AO-7 26 Oct 08:06:01 08:09:34 14° 317° (NW) 08:13:08 29.400 - 29.500 MHz
Hamsat 26 Oct 08:14:28 08:15:16 11° 299° (WNW) 08:16:05 145.90 MHz
RS-15 26 Oct 08:15:45 08:26:22 52° 248° (WSW) 08:37:26 29.354 - 29.394 USB, Beacon 29.352 USB
MaSat-1 26 Oct 08:24:41 08:26:55 24° 56° (ENE) 08:28:59 437.345 MHz
SO-67 26 Oct 08:25:16 08:28:27 35° 287° (WNW) 08:31:37 435.3500 MHz FM
Saudisat 1A 26 Oct 09:06:59 09:09:47 16° 321° (NW) 09:12:37 436.775 MHz
HO-68 26 Oct 09:11:32 09:18:13 39° 98° (E) 09:24:50 435.675 MHz FM
UKube-1 26 Oct 09:52:06 09:55:54 28° 96° (E) 09:59:39 145.840 MHz, 145.915 MHz
ZACube-1 26 Oct 09:52:10 09:53:07 11° 89° (E) 09:54:03 437.345 MHz
Oscar 11 26 Oct 10:31:51 10:36:11 76° 102° (ESE) 10:40:28 145.825 FM, Beacon 2401.500 USB
FUNcube-1 26 Oct 10:34:07 10:37:56 32° 96° (E) 10:41:40 145.950 - 145.970 MHz USB
PCSat 26 Oct 10:41:00 10:43:22 13° 35° (NE) 10:45:43 145.825 MHz
HO-68 26 Oct 10:59:14 11:05:55 43° 296° (WNW) 11:12:33 435.675 MHz FM
